sat.trackr.live / text

‹ back to catalog

STARLINK-36741

NORAD 67727 · 2026-026G

PAYLOAD ACTIVE UNKNOWN

§ Identity

Operator
Country
US
Launch date
2026-02-11
Launch site
AFWTR
Launch vehicle
Mass (kg)
RCS (m²)

Purposes: comms

External: N2YO · Heavens-Above · Gunter

§ Orbital elements

Epoch: 2026-09-19T22:44:58.534944Z

Period
93.91 min
Inclination
97.2856°
Eccentricity
0.0000679
Mean motion
15.33450977 rev/d
Perigee alt
465.1 km
Apogee alt
466.0 km
Semi-major
6,843.7 km
B*
3.0178e-4
RAAN
314.7504°
Arg perigee
107.7481°
Mean anomaly
252.3836°
Rev number
3,389

§ Raw data

STARLINK-367411 67727U 26026G   26262.94789971  .00009682  00000+0  30178-3 0  99932 67727  97.2856 314.7504 0000679 107.7481 252.3836 15.33450977 33898

JSON: /api/v1/satellites/67727 · /tle

For live sub-satellite position, see the globe view (requires WebGL).

§ Visibility from observer

Set your observer location to see the next 7 days of passes ≥ 10°. The values pass through the URL so the page stays shareable.

No JS? Fill the form by hand. The geolocation button needs JavaScript.